Location: Battery Park City
(40.7115°N, 74.0163°W)
Time: 18:11:49
(UTC+00:00)

CZ-4B R/B - Pass Details

Date: 08 December 2019
Orbit: 392 x 469 km, 97.6° (Epoch: 25 January)

Event Time Altitude Azimuth Distance (km) Brightness Sun altitude
Rises 22:15:20 0° 350° (N) 2,522 5.1 -8.8°
Reaches altitude 10° 22:18:22 10° 321° (NW) 1,635 4.5 -9.3°
Maximum altitude 22:19:55 13° 294° (WNW) 1,475 4.7 -9.6°
Drops below altitude 10° 22:21:28 10° 268° (W) 1,622 5.5 -9.9°
Sets 22:24:28 0° 238° (WSW) 2,479 7.1 -10.4°
